Location: Ammerl�gen
(47.2167°N, 9.6000°E)
Time: 11:12:24
(UTC+00:00)

Cosmos 1842 Rocket - Pass Details

Date: 21 April 2021
Orbit: 606 x 633 km, 82.5° (Epoch: 06 May)

Event Time Altitude Azimuth Distance (km) Brightness Sun altitude
Exits shadow 21:03:29 54° 70° (ENE) 763 3.8 -23.2°
Drops below altitude 10° 21:07:27 10° 17° (NNE) 2,021 6.6 -23.6°
Sets 21:09:44 0° 13° (NNE) 2,936 7.6 -23.9°
